Regional Weather Roundup
Issued by NWS

Home | Current Version | Previous Version | Graphics & Text | Print | Product List | Glossary On
Versions: 1 2 3 4 5 6 7 8 9 10 11 12 13 14 15 16 17 18 19 20 21 22 23 24 25 26 27 28 29 30 31 32 33 34 35 36 37 38 39 40 41 42 43 44 45 46 47 48 49 50
000
ASUS43 KMKX 232021
RWRWI

WISCONSIN REGIONAL WEATHER ROUNDUP
NATIONAL WEATHER SERVICE MILWAUKEE/SULLIVAN WI
300 PM CDT WED MAY 23 2018

NOTE: "FAIR" INDICATES FEW OR NO CLOUDS BELOW 12,000 FEET WITH NO
SIGNIFICANT WEATHER AND/OR OBSTRUCTIONS TO VISIBILITY.

WIZ001-002-006>008-014>016-023>028-232100-
NORTHWEST WISCONSIN

CITY           SKY/WX    TMP DP  RH WIND       PRES   REMARKS
SUPERIOR ARPT  PTSUNNY   77  58  51 NE7       30.08S
ASHLAND        PTSUNNY   84  54  35 VRB7      30.10F HX  83
HAYWARD        PTSUNNY   80  59  48 SW8       30.13S HX  81
SIREN          FAIR      78  60  53 S8        30.11F
CUMBERLAND     PTSUNNY   73  59  60 SE8       30.13F
RICE LAKE      PTSUNNY   79  59  50 S8        30.14F HX  80
CHETEK         PTSUNNY   78  62  58 S8        30.12F
LADYSMITH      PTSUNNY   79  59  51 S6        30.15F HX  80
EAU CLAIRE     FAIR      78  62  57 S10G16    30.12F HX  80
MENOMONIE      FAIR      82  58  44 S8G16     30.12F HX  81
NEW RICHMOND   FAIR      79  55  43 SW3       30.12F
OSCEOLA        FAIR      78  57  49 S8        30.13F
$$

WIZ003>005-009-010-017-018-232100-
NORTH CENTRAL WISCONSIN

CITY           SKY/WX    TMP DP  RH WIND       PRES   REMARKS
MANITOWISH WTR PTSUNNY   80  54  40 SW10      30.13F HX  80
ARBOR VITAE    FAIR      81  53  37 W7        30.13F HX  80
WOODRUFF       FAIR      81  53  37 W7        30.13F HX  80
RHINELANDER    FAIR      83  53  35 W6        30.15S HX  82
EAGLE RIVER    PTSUNNY   81  47  29 W5        30.13F HX  80
LAND O LAKES   PTSUNNY   80  45  28 W6        30.15S
PHILLIPS       FAIR      78  58  50 W7        30.13F
TOMAHAWK       FAIR      78  53  42 SW3       30.15F
MEDFORD        CLOUDY    75  58  55 SW8       30.15F
MERRILL        FAIR      79  57  46 SW8       30.15S HX  80
$$

WIZ029-030-035-036-043>047-232100-
CENTRAL WISCONSIN

CITY           SKY/WX    TMP DP  RH WIND       PRES   REMARKS
WAUSAU         FAIR      78  57  48 S8        30.14S
MOSINEE        PTSUNNY   75  57  53 SW6       30.17S
MARSHFIELD     PTSUNNY   76  61  59 SW6       30.15F
STEVENS POINT  FAIR      76  57  52 W5        30.16S
WAUPACA        FAIR      80  58  46 S8        30.15F HX  81
WAUTOMA        FAIR      76  59  55 S6        30.16S
WISC RAPIDS    FAIR      78  55  44 W5        30.17S
CAMP DOUGLAS   CLOUDY    77  63  61 S6        30.15F
$$

WIZ011>013-019>022-031-037>040-048>050-232100-
NORTHEAST WISCONSIN

CITY           SKY/WX    TMP DP  RH WIND       PRES   REMARKS
ANTIGO         PTSUNNY   78  55  45 SW12      30.15F
SHAWANO        FAIR      84  50  31 CALM      30.13S HX  82
OCONTO         FAIR      81  51  35 S6        30.13F HX  80
STURGEON BAY   FAIR      76  59  55 E8        30.16
GREEN BAY      FAIR      79  54  41 S8        30.14F
MANITOWOC      FAIR      71  59  65 S14       30.16F
APPLETON       PTSUNNY   75  55  50 S10       30.15S
CLINTONVILLE   FAIR      80  53  38 S6        30.14S HX  80
OSHKOSH        FAIR      76  59  55 CALM      30.15F
$$

WIZ032>034-041-042-053>061-232100-
SOUTHWEST WISCONSIN

CITY           SKY/WX    TMP DP  RH WIND       PRES   REMARKS
LA CROSSE      PTSUNNY   78  62  57 S8        30.13F HX  80
SPARTA         FAIR      77  62  58 SW3       30.15F
VIROQUA        FAIR      78  63  60 S9        30.17S HX  80
BOSCOBEL       FAIR      81  63  54 VRB7      30.15F HX  82
PRAIRIE DU CHI FAIR      78  60  54 S6        30.14F
PLATTEVILLE    FAIR      76  65  67 S6        30.17S
$$

WIZ056-057-062-063-064-067-068-232100-
SOUTH CENTRAL WISCONSIN

CITY           SKY/WX    TMP DP  RH WIND       PRES   REMARKS
REEDSBURG      FAIR      77  64  63 SW6       30.15F
BARABOO/DELLS  CLOUDY    77  58  50 S5        30.16S
LONE ROCK        N/A     78  64  61 SE3       30.15  HX  80
MINERAL POINT  FAIR      79  63  57 S6        30.17F HX  80
MADISON        PTSUNNY   78  60  53 S7        30.15F
MIDDLETON      PTSUNNY   78  60  54 S8        30.17F
WATERTOWN      FAIR      78  59  50 SW5       30.16F
MONROE         FAIR      77  55  47 SW3       30.17F
JANESVILLE     MOSUNNY   79  57  47 S3        30.17F HX  80
$$

WIZ051-052-058>065-066-070>072-232100-
SOUTHEAST WISCONSIN

CITY           SKY/WX    TMP DP  RH WIND       PRES   REMARKS
MILWAUKEE      PTSUNNY   75  59  57 SE13      30.18F
WAUKESHA       SUNNY     75  48  38 S6        30.18F
MILWAUKEE/TIMM SUNNY     79  52  38 SE10      30.18F
RACINE         FAIR      71  59  65 SE12      30.20F
BURLINGTON     FAIR      78  52  40 S3        30.17F
KENOSHA        FAIR      74  57  55 E10       30.19F
FOND DU LAC    FAIR      76  56  49 SW7       30.16F
SHEBOYGAN      FAIR      75  58  55 SE9       30.16F
WEST BEND      FAIR      75  55  50 SE12      30.16F
JUNEAU         FAIR      76  59  54 CALM      30.17F
$$

LSZ147-162-232100-
LAKE SUPERIOR

STATION/POSITION TIME  TEMP    WIND        PRES    WAVE
                       AIR SEA DIR/SP/G            HT/PER
                 (UTC) (F)     (DEG/KT/KT) (MB)    (FT/S)
W MID LAKE BUOY  1950   43 36   20/  4/  4 1020.4F   0
DEVILS ISLAND    2000   53      60/  7/  8 1020.1F
SAXON HARBOR     1930   62     340/  4/  6 1019.3F
$$

LMZ867-665-643>646-232100-
LAKE MICHIGAN

STATION/POSITION TIME  TEMP    WIND        PRES    WAVE
                       AIR SEA DIR/SP/G            HT/PER
                 (UTC) (F)     (DEG/KT/KT) (MB)    (FT/S)
N MID LAKE BUOY  2000   39 38  200/  8/  8 1021.6
NORTHPORT PIER   1940   51     140/  6/  7 1021.0S
KEWAUNEE LAKESHO 1954   53     130/  3/  6 1020.6F
SHEBOYGAN LAKESH 2000   53     160/ 18/ 19 1021.5F
PORT WASHINGTON  1940   62     180/  4/  7 1023.0F
ATWATER BUOY     1937   54 50  160/ 10/ 12 1021.9F   1/ 2
MILWAUKEE LAKESH 2000   56     140/ 16/ 16   N/A
S MID LAKE BUOY  1950   44 40  130/  4/  4 1023.5F   0
KENOSHA   LAKESH 2000   58                 1022.0
$$

TC  - TEMPERATURE IN CELSIUS
VSB - VISIBILITY IN STATUTE MILES
WCI - WIND CHILL INDEX
HX  - HEAT INDEX





USA.gov is the U.S. government's official web portal to all federal, state and local government web resources and services.